MAS113 WADD-WIII

Flight info

Callsign MAS113
Flight time 1h 38m
Altitude 38000
Route OKANG T4 FARIZ T6 KURUS
Aircraft A339/H-SADE1E2E3GHIJ3J5M1P2RWXY/LB2D1

Departure

Time 2026-05-08 09:05
Airport Denpasar I Gusti Ngurah Rai International Airport (WADD)

Arrival

Time 2026-05-08 10:44
Airport Soekarno-Hatta International Airport (WIII)
Time Latitude Longitude Altitude Speed Heading
2026-05-08 08:45 -8.74599 115.16441 34 ft 0 kts 358°
2026-05-08 08:51 -8.74600 115.16441 34 ft 0 kts 358°
2026-05-08 08:52 -8.74608 115.16441 33 ft 2 kts 358°
2026-05-08 08:52 -8.74612 115.16441 33 ft 0 kts 358°
2026-05-08 08:54 -8.74613 115.16442 33 ft 0 kts 358°
2026-05-08 08:55 -8.74624 115.16442 33 ft 2 kts 352°
2026-05-08 08:55 -8.74638 115.16445 33 ft 2 kts 341°
2026-05-08 08:55 -8.74652 115.16451 33 ft 2 kts 332°
2026-05-08 08:55 -8.74664 115.16459 32 ft 2 kts 322°
2026-05-08 08:56 -8.74676 115.16469 32 ft 2 kts 313°
2026-05-08 08:56 -8.74685 115.16480 31 ft 2 kts 303°
2026-05-08 08:56 -8.74693 115.16493 31 ft 2 kts 294°
2026-05-08 08:56 -8.74698 115.16508 31 ft 2 kts 284°
2026-05-08 08:57 -8.74700 115.16522 31 ft 2 kts 274°
2026-05-08 08:57 -8.74701 115.16534 31 ft 0 kts 266°
2026-05-08 08:57 -8.74701 115.16538 31 ft 0 kts 266°
2026-05-08 08:59 -8.74701 115.16537 31 ft 0 kts 266°
2026-05-08 09:00 -8.74702 115.16518 31 ft 9 kts 266°
2026-05-08 09:00 -8.74709 115.16427 32 ft 11 kts 265°
2026-05-08 09:00 -8.74713 115.16373 32 ft 4 kts 265°
2026-05-08 09:01 -8.74717 115.16328 32 ft 7 kts 265°
2026-05-08 09:01 -8.74718 115.16270 32 ft 9 kts 269°
2026-05-08 09:01 -8.74718 115.16261 32 ft 6 kts 269°
2026-05-08 09:01 -8.74718 115.16239 31 ft 7 kts 273°
2026-05-08 09:02 -8.74718 115.16173 30 ft 11 kts 269°
2026-05-08 09:02 -8.74724 115.16077 27 ft 15 kts 267°
2026-05-08 09:02 -8.74731 115.15951 24 ft 19 kts 267°
2026-05-08 09:02 -8.74738 115.15815 22 ft 19 kts 266°
2026-05-08 09:03 -8.74744 115.15677 22 ft 19 kts 268°
2026-05-08 09:03 -8.74747 115.15570 24 ft 12 kts 268°
2026-05-08 09:03 -8.74750 115.15482 24 ft 12 kts 262°
2026-05-08 09:03 -8.74798 115.15417 26 ft 10 kts 204°
2026-05-08 09:04 -8.74867 115.15415 28 ft 10 kts 160°
2026-05-08 09:04 -8.74915 115.15468 27 ft 11 kts 112°
2026-05-08 09:04 -8.74920 115.15511 26 ft 1 kts 87°
2026-05-08 09:04 -8.74917 115.15582 25 ft 34 kts 86°
2026-05-08 09:05 -8.74897 115.16042 26 ft 93 kts 88°
2026-05-08 09:05 -8.74861 115.16866 25 ft 141 kts 88°
2026-05-08 09:05 -8.74842 115.17948 317 ft 157 kts 91°
2026-05-08 09:05 -8.74794 115.19019 870 ft 152 kts 90°
2026-05-08 09:06 -8.74733 115.20091 1405 ft 153 kts 90°
2026-05-08 09:06 -8.74690 115.21159 1847 ft 156 kts 90°
2026-05-08 09:06 -8.74647 115.22291 2079 ft 169 kts 90°
2026-05-08 09:06 -8.74599 115.23538 2343 ft 183 kts 89°
2026-05-08 09:07 -8.74546 115.24873 2620 ft 198 kts 89°
2026-05-08 09:07 -8.74487 115.26332 2915 ft 215 kts 89°
2026-05-08 09:07 -8.74422 115.27890 3217 ft 232 kts 88°
2026-05-08 09:07 -8.74352 115.29575 3525 ft 248 kts 88°
2026-05-08 09:08 -8.74277 115.31344 4020 ft 257 kts 88°
2026-05-08 09:08 -8.74201 115.33147 4678 ft 260 kts 88°
2026-05-08 09:08 -8.74124 115.34988 5318 ft 263 kts 88°
2026-05-08 09:08 -8.74047 115.36834 5921 ft 267 kts 88°
2026-05-08 09:09 -8.73968 115.38717 6523 ft 271 kts 88°
2026-05-08 09:09 -8.73888 115.40617 7117 ft 274 kts 88°
2026-05-08 09:09 -8.73807 115.42548 7706 ft 278 kts 88°
2026-05-08 09:09 -8.73724 115.44518 8281 ft 282 kts 88°
2026-05-08 09:10 -8.73640 115.46510 8770 ft 286 kts 88°
2026-05-08 09:10 -8.73555 115.48541 8997 ft 288 kts 88°
2026-05-08 09:10 -8.73268 115.50547 8993 ft 288 kts 70°
2026-05-08 09:10 -8.72239 115.52268 8996 ft 289 kts 47°
2026-05-08 09:11 -8.70826 115.53693 9008 ft 289 kts 45°
2026-05-08 09:11 -8.69366 115.55122 9004 ft 288 kts 45°
2026-05-08 09:11 -8.67924 115.56541 9001 ft 288 kts 45°
2026-05-08 09:11 -8.66487 115.57966 8999 ft 288 kts 45°
2026-05-08 09:12 -8.65064 115.59385 8998 ft 288 kts 45°
2026-05-08 09:12 -8.63629 115.60822 8997 ft 289 kts 45°
2026-05-08 09:12 -8.62194 115.62257 8995 ft 289 kts 45°
2026-05-08 09:12 -8.60772 115.63684 8993 ft 290 kts 45°
2026-05-08 09:13 -8.59323 115.65137 8992 ft 290 kts 45°
2026-05-08 09:13 -8.57890 115.66574 8991 ft 290 kts 45°
2026-05-08 09:13 -8.56434 115.68032 8989 ft 290 kts 44°
2026-05-08 09:13 -8.54796 115.69167 8967 ft 290 kts 19°
2026-05-08 09:14 -8.52765 115.69379 9087 ft 296 kts 353°
2026-05-08 09:14 -8.50701 115.69085 9689 ft 297 kts 353°
2026-05-08 09:14 -8.48666 115.68749 10285 ft 299 kts 343°
2026-05-08 09:14 -8.46763 115.67770 10556 ft 313 kts 320°
2026-05-08 09:15 -8.45333 115.66064 10799 ft 327 kts 297°
2026-05-08 09:15 -8.44644 115.63846 11034 ft 341 kts 275°
2026-05-08 09:15 -8.44693 115.61399 11283 ft 353 kts 266°
2026-05-08 09:15 -8.44811 115.58889 11512 ft 367 kts 267°
2026-05-08 09:16 -8.44915 115.56258 11769 ft 379 kts 267°
2026-05-08 09:16 -8.45008 115.53595 12231 ft 384 kts 268°
2026-05-08 09:16 -8.45096 115.50897 12793 ft 386 kts 267°
2026-05-08 09:16 -8.45183 115.48164 13357 ft 387 kts 268°
2026-05-08 09:17 -8.45268 115.45467 13882 ft 389 kts 268°
2026-05-08 09:17 -8.45355 115.42702 14385 ft 392 kts 268°
2026-05-08 09:17 -8.45441 115.39932 14869 ft 395 kts 268°
2026-05-08 09:17 -8.45526 115.37188 15357 ft 398 kts 268°
2026-05-08 09:18 -8.45612 115.34383 15855 ft 400 kts 268°
2026-05-08 09:18 -8.45698 115.31577 16329 ft 402 kts 268°
2026-05-08 09:18 -8.45784 115.28760 16780 ft 405 kts 268°
2026-05-08 09:18 -8.45874 115.25905 17245 ft 408 kts 268°
2026-05-08 09:19 -8.45968 115.23032 17625 ft 412 kts 268°
2026-05-08 09:19 -8.46063 115.20104 18021 ft 417 kts 268°
2026-05-08 09:19 -8.46157 115.17168 18475 ft 419 kts 268°
2026-05-08 09:19 -8.46252 115.14248 18926 ft 421 kts 268°
2026-05-08 09:20 -8.46348 115.11266 19369 ft 424 kts 268°
2026-05-08 09:20 -8.46443 115.08298 19804 ft 426 kts 268°
2026-05-08 09:20 -8.46540 115.05303 20221 ft 428 kts 268°
2026-05-08 09:20 -8.46456 115.02284 20578 ft 432 kts 279°
2026-05-08 09:21 -8.45489 114.99442 20944 ft 436 kts 297°
2026-05-08 09:21 -8.43668 114.96963 21382 ft 438 kts 314°
2026-05-08 09:22 -8.29979 114.84765 23521 ft 450 kts 301°
2026-05-08 09:23 -8.28338 114.82104 23832 ft 453 kts 301°
2026-05-08 09:23 -8.26634 114.79391 24163 ft 456 kts 302°
2026-05-08 09:23 -8.24917 114.76707 24496 ft 458 kts 302°
2026-05-08 09:23 -8.23168 114.74010 24821 ft 460 kts 303°
2026-05-08 09:24 -8.21393 114.71297 25130 ft 462 kts 303°
2026-05-08 09:24 -8.19620 114.68604 25434 ft 464 kts 303°
2026-05-08 09:24 -8.17821 114.65880 25721 ft 466 kts 303°
2026-05-08 09:24 -8.16014 114.63151 26014 ft 468 kts 303°
2026-05-08 09:25 -8.14216 114.60438 26294 ft 470 kts 303°
2026-05-08 09:25 -8.12371 114.57656 26577 ft 472 kts 303°
2026-05-08 09:25 -8.10556 114.54922 26821 ft 474 kts 303°
2026-05-08 09:25 -8.08713 114.52146 27076 ft 477 kts 303°
2026-05-08 09:26 -8.06859 114.49354 27345 ft 478 kts 303°
2026-05-08 09:26 -8.05018 114.46583 27696 ft 478 kts 303°
2026-05-08 09:26 -8.03179 114.43814 28070 ft 477 kts 303°
2026-05-08 09:26 -8.01321 114.41019 28410 ft 476 kts 303°
2026-05-08 09:27 -7.99466 114.38227 28714 ft 478 kts 303°
2026-05-08 09:27 -7.97606 114.35429 29000 ft 479 kts 303°
2026-05-08 09:27 -7.95745 114.32629 29296 ft 480 kts 303°
2026-05-08 09:27 -7.93883 114.29829 29608 ft 481 kts 303°
2026-05-08 09:28 -7.92014 114.27019 29895 ft 482 kts 303°
2026-05-08 09:28 -7.88274 114.21397 29947 ft 483 kts 303°
2026-05-08 09:29 -7.84539 114.15784 29926 ft 483 kts 303°
2026-05-08 09:29 -7.80778 114.10136 29912 ft 484 kts 303°
2026-05-08 09:30 -7.77022 114.04495 29898 ft 484 kts 303°
2026-05-08 09:30 -7.73255 113.98843 29884 ft 484 kts 303°
2026-05-08 09:31 -7.69510 113.93223 29876 ft 484 kts 303°
2026-05-08 09:31 -7.65743 113.87575 29867 ft 484 kts 303°
2026-05-08 09:32 -7.61985 113.81943 29866 ft 484 kts 303°
2026-05-08 09:32 -7.58231 113.76315 29866 ft 484 kts 303°
2026-05-08 09:33 -7.54488 113.70705 29872 ft 485 kts 303°
2026-05-08 09:33 -7.50739 113.65091 29866 ft 485 kts 303°
2026-05-08 09:34 -7.46960 113.59437 29861 ft 485 kts 303°
2026-05-08 09:34 -7.43205 113.53817 29851 ft 485 kts 303°
2026-05-08 09:35 -7.39441 113.48186 29837 ft 485 kts 303°
2026-05-08 09:35 -7.35647 113.42512 29838 ft 485 kts 303°
2026-05-08 09:36 -7.31887 113.36890 29836 ft 485 kts 303°
2026-05-08 09:36 -7.28094 113.31222 29821 ft 486 kts 303°
2026-05-08 09:37 -7.24317 113.25582 29817 ft 486 kts 303°
2026-05-08 09:37 -7.20534 113.19935 29828 ft 486 kts 303°
2026-05-08 09:38 -7.16742 113.14273 29827 ft 486 kts 303°
2026-05-08 09:38 -7.12952 113.08617 29829 ft 486 kts 303°
2026-05-08 09:39 -7.09196 113.03012 29818 ft 487 kts 303°
2026-05-08 09:39 -7.05392 112.97340 29812 ft 488 kts 303°
2026-05-08 09:40 -7.01574 112.91650 29809 ft 489 kts 303°
2026-05-08 09:40 -6.97789 112.86010 29797 ft 489 kts 304°
2026-05-08 09:41 -6.93963 112.80310 29793 ft 489 kts 303°
2026-05-08 09:41 -6.90147 112.74629 29798 ft 489 kts 303°
2026-05-08 09:42 -6.86345 112.68969 29796 ft 489 kts 303°
2026-05-08 09:42 -6.82530 112.63292 29797 ft 489 kts 303°
2026-05-08 09:43 -6.78723 112.57627 29797 ft 489 kts 303°
2026-05-08 09:43 -6.74897 112.51936 29800 ft 490 kts 303°
2026-05-08 09:44 -6.71077 112.46258 29807 ft 491 kts 303°
2026-05-08 09:44 -6.67256 112.40577 29812 ft 491 kts 303°
2026-05-08 09:45 -6.63428 112.34888 29813 ft 491 kts 304°
2026-05-08 09:45 -6.59590 112.29190 29819 ft 491 kts 304°
2026-05-08 09:46 -6.55744 112.23480 29815 ft 491 kts 304°
2026-05-08 09:46 -6.51914 112.17796 29817 ft 492 kts 304°
2026-05-08 09:47 -6.48065 112.12083 29818 ft 493 kts 304°
2026-05-08 09:47 -6.44215 112.06370 29814 ft 493 kts 304°
2026-05-08 09:48 -6.40374 112.00675 29808 ft 493 kts 304°
2026-05-08 09:48 -6.36537 111.94987 29804 ft 492 kts 304°
2026-05-08 09:49 -6.32684 111.89278 29801 ft 492 kts 304°
2026-05-08 09:49 -6.28829 111.83567 29801 ft 493 kts 304°
2026-05-08 09:50 -6.24975 111.77859 29802 ft 493 kts 304°
2026-05-08 09:50 -6.21143 111.72186 29800 ft 493 kts 304°
2026-05-08 09:51 -6.17289 111.66480 29796 ft 492 kts 304°
2026-05-08 09:51 -6.13443 111.60789 29796 ft 493 kts 304°
2026-05-08 09:52 -6.09573 111.55062 29796 ft 493 kts 304°
2026-05-08 09:52 -6.05745 111.49398 29796 ft 493 kts 304°
2026-05-08 09:53 -6.01893 111.43700 29796 ft 492 kts 304°
2026-05-08 09:53 -5.98040 111.38001 29797 ft 492 kts 304°
2026-05-08 09:54 -5.94178 111.32286 29797 ft 492 kts 304°
2026-05-08 09:54 -5.91773 111.28734 29798 ft 492 kts 304°
2026-05-08 09:55 -5.88745 111.22613 29795 ft 493 kts 287°
2026-05-08 09:55 -5.87885 111.15794 29798 ft 495 kts 268°
2026-05-08 09:56 -5.88597 111.08933 29802 ft 495 kts 263°
2026-05-08 09:56 -5.89414 111.02063 29799 ft 494 kts 263°
2026-05-08 09:57 -5.90584 110.91788 29801 ft 494 kts 264°
2026-05-08 09:57 -5.91352 110.84906 29800 ft 495 kts 264°
2026-05-08 09:58 -5.92116 110.78030 29805 ft 495 kts 264°
2026-05-08 09:58 -5.92874 110.71184 29805 ft 496 kts 264°
2026-05-08 09:59 -5.93634 110.64318 29804 ft 496 kts 263°
2026-05-08 09:59 -5.94400 110.57409 29803 ft 496 kts 263°
2026-05-08 10:00 -5.95156 110.50577 29810 ft 495 kts 263°
2026-05-08 10:00 -5.95918 110.43669 29814 ft 495 kts 263°
2026-05-08 10:01 -5.96476 110.36797 29812 ft 495 kts 268°
2026-05-08 10:01 -5.96519 110.29873 29817 ft 495 kts 270°
2026-05-08 10:02 -5.96508 110.22987 29820 ft 495 kts 270°
2026-05-08 10:02 -5.96501 110.16068 29821 ft 495 kts 270°
2026-05-08 10:03 -5.96497 110.09167 29821 ft 495 kts 270°
2026-05-08 10:03 -5.96493 110.02252 29824 ft 494 kts 270°
2026-05-08 10:04 -5.96490 109.95376 29819 ft 494 kts 269°
2026-05-08 10:04 -5.96486 109.88460 29817 ft 495 kts 269°
2026-05-08 10:05 -5.96482 109.81599 29815 ft 495 kts 269°
2026-05-08 10:05 -5.96478 109.74666 29806 ft 495 kts 270°
2026-05-08 10:06 -5.96475 109.71249 29577 ft 496 kts 270°
2026-05-08 10:06 -5.96471 109.67784 29327 ft 496 kts 269°
2026-05-08 10:06 -5.96466 109.64334 29078 ft 497 kts 269°
2026-05-08 10:06 -5.96462 109.60841 28826 ft 497 kts 269°
2026-05-08 10:07 -5.96457 109.57367 28576 ft 498 kts 269°
2026-05-08 10:07 -5.96453 109.53883 28329 ft 497 kts 269°
2026-05-08 10:07 -5.96448 109.50432 28090 ft 496 kts 269°
2026-05-08 10:07 -5.96445 109.46985 27850 ft 494 kts 269°
2026-05-08 10:08 -5.96441 109.43561 27612 ft 492 kts 269°
2026-05-08 10:08 -5.96436 109.40142 27372 ft 490 kts 269°
2026-05-08 10:08 -5.96431 109.36713 27130 ft 489 kts 269°
2026-05-08 10:08 -5.96426 109.33289 26888 ft 487 kts 269°
2026-05-08 10:09 -5.96421 109.29926 26649 ft 485 kts 270°
2026-05-08 10:09 -5.96415 109.26528 26407 ft 483 kts 270°
2026-05-08 10:09 -5.96409 109.23167 26168 ft 482 kts 270°
2026-05-08 10:09 -5.96404 109.19807 25929 ft 480 kts 270°
2026-05-08 10:10 -5.96398 109.16503 25690 ft 478 kts 270°
2026-05-08 10:10 -5.96392 109.13190 25451 ft 476 kts 270°
2026-05-08 10:10 -5.96385 109.09866 25209 ft 474 kts 270°
2026-05-08 10:10 -5.96378 109.06551 24967 ft 473 kts 270°
2026-05-08 10:11 -5.96371 109.03248 24806 ft 471 kts 270°
2026-05-08 10:11 -5.96363 108.99997 24803 ft 472 kts 270°
2026-05-08 10:11 -5.96355 108.96680 24802 ft 472 kts 270°
2026-05-08 10:11 -5.96347 108.93417 24800 ft 472 kts 270°
2026-05-08 10:12 -5.96338 108.90082 24800 ft 472 kts 270°
2026-05-08 10:12 -5.96330 108.86829 24780 ft 473 kts 270°
2026-05-08 10:12 -5.96323 108.83521 24539 ft 470 kts 270°
2026-05-08 10:12 -5.96316 108.80251 24299 ft 468 kts 270°
2026-05-08 10:13 -5.96308 108.76992 24061 ft 467 kts 270°
2026-05-08 10:13 -5.96300 108.73738 23821 ft 465 kts 270°
2026-05-08 10:13 -5.96291 108.70496 23582 ft 463 kts 270°
2026-05-08 10:13 -5.96282 108.67298 23346 ft 462 kts 270°
2026-05-08 10:14 -5.96273 108.64080 23111 ft 460 kts 270°
2026-05-08 10:14 -5.96265 108.60881 22876 ft 459 kts 270°
2026-05-08 10:14 -5.96255 108.57677 22640 ft 457 kts 270°
2026-05-08 10:14 -5.96246 108.54480 22405 ft 456 kts 270°
2026-05-08 10:15 -5.96236 108.51341 22172 ft 454 kts 270°
2026-05-08 10:15 -5.96226 108.48148 21939 ft 453 kts 270°
2026-05-08 10:15 -5.96219 108.45004 21709 ft 451 kts 270°
2026-05-08 10:15 -5.96216 108.41864 21478 ft 450 kts 270°
2026-05-08 10:16 -5.96213 108.38715 21247 ft 448 kts 270°
2026-05-08 10:16 -5.96211 108.35599 21017 ft 446 kts 270°
2026-05-08 10:16 -5.96209 108.32473 20784 ft 446 kts 270°
2026-05-08 10:16 -5.96206 108.29369 20553 ft 445 kts 270°
2026-05-08 10:17 -5.96204 108.26285 20323 ft 444 kts 270°
2026-05-08 10:17 -5.96200 108.23165 20091 ft 443 kts 270°
2026-05-08 10:17 -5.96197 108.20047 19858 ft 442 kts 270°
2026-05-08 10:17 -5.96193 108.16957 19626 ft 440 kts 270°
2026-05-08 10:18 -5.96189 108.13910 19396 ft 439 kts 270°
2026-05-08 10:18 -5.96186 108.10828 19163 ft 438 kts 270°
2026-05-08 10:18 -5.96183 108.07793 18933 ft 437 kts 270°
2026-05-08 10:18 -5.96180 108.04724 18700 ft 435 kts 270°
2026-05-08 10:19 -5.96175 108.01693 18469 ft 434 kts 270°
2026-05-08 10:19 -5.96171 107.98680 18238 ft 433 kts 270°
2026-05-08 10:19 -5.96169 107.95663 18006 ft 431 kts 270°
2026-05-08 10:20 -5.96170 107.89668 17543 ft 428 kts 270°
2026-05-08 10:20 -5.96171 107.86710 17309 ft 419 kts 270°
2026-05-08 10:20 -5.96171 107.83803 17075 ft 411 kts 270°
2026-05-08 10:20 -5.96170 107.80979 16845 ft 403 kts 270°
2026-05-08 10:21 -5.96170 107.78162 16614 ft 395 kts 269°
2026-05-08 10:21 -5.96171 107.75463 16387 ft 389 kts 269°
2026-05-08 10:21 -5.96172 107.72760 16156 ft 382 kts 269°
2026-05-08 10:21 -5.96172 107.70133 15924 ft 375 kts 269°
2026-05-08 10:22 -5.96172 107.67523 15690 ft 369 kts 270°
2026-05-08 10:22 -5.96171 107.64962 15454 ft 364 kts 270°
2026-05-08 10:22 -5.96171 107.62457 15226 ft 358 kts 270°
2026-05-08 10:22 -5.96171 107.59944 14991 ft 353 kts 270°
2026-05-08 10:23 -5.96171 107.57532 14755 ft 348 kts 270°
2026-05-08 10:23 -5.96171 107.55121 14530 ft 343 kts 270°
2026-05-08 10:23 -5.96172 107.52714 14294 ft 339 kts 270°
2026-05-08 10:23 -5.96172 107.50384 14064 ft 335 kts 270°
2026-05-08 10:24 -5.96173 107.48064 13832 ft 331 kts 270°
2026-05-08 10:24 -5.96173 107.45761 13599 ft 327 kts 270°
2026-05-08 10:24 -5.96173 107.43488 13365 ft 324 kts 270°
2026-05-08 10:24 -5.96174 107.41243 13132 ft 321 kts 270°
2026-05-08 10:25 -5.96174 107.39022 12898 ft 318 kts 270°
2026-05-08 10:25 -5.96174 107.36809 12663 ft 315 kts 270°
2026-05-08 10:25 -5.96173 107.34640 12429 ft 312 kts 270°
2026-05-08 10:25 -5.96172 107.32471 12194 ft 309 kts 270°
2026-05-08 10:26 -5.96170 107.30306 11956 ft 307 kts 270°
2026-05-08 10:26 -5.96166 107.28155 11718 ft 304 kts 270°
2026-05-08 10:26 -5.96163 107.26042 11483 ft 302 kts 270°
2026-05-08 10:26 -5.96159 107.23956 11250 ft 300 kts 270°
2026-05-08 10:27 -5.96157 107.21880 11015 ft 297 kts 270°
2026-05-08 10:27 -5.96153 107.19801 10769 ft 295 kts 270°
2026-05-08 10:27 -5.96150 107.17740 10537 ft 293 kts 270°
2026-05-08 10:27 -5.96147 107.15707 10306 ft 292 kts 270°
2026-05-08 10:28 -5.96144 107.13690 10072 ft 290 kts 270°
2026-05-08 10:28 -5.96140 107.11654 9887 ft 286 kts 270°
2026-05-08 10:28 -5.96137 107.09682 9765 ft 280 kts 270°
2026-05-08 10:28 -5.96133 107.07751 9644 ft 274 kts 270°
2026-05-08 10:29 -5.96129 107.05862 9518 ft 268 kts 270°
2026-05-08 10:29 -5.96125 107.03997 9402 ft 266 kts 270°
2026-05-08 10:29 -5.96121 107.02121 9285 ft 266 kts 270°
2026-05-08 10:29 -5.96117 107.00262 9170 ft 266 kts 270°
2026-05-08 10:30 -5.96112 106.98404 9052 ft 266 kts 270°
2026-05-08 10:30 -5.96108 106.96555 8936 ft 266 kts 270°
2026-05-08 10:30 -5.96104 106.94715 8817 ft 265 kts 270°
2026-05-08 10:30 -5.96099 106.92859 8695 ft 265 kts 270°
2026-05-08 10:31 -5.96095 106.90994 8576 ft 264 kts 270°
2026-05-08 10:31 -5.96091 106.89156 8452 ft 263 kts 270°
2026-05-08 10:31 -5.96085 106.87336 8333 ft 264 kts 270°
2026-05-08 10:31 -5.96080 106.85481 8217 ft 264 kts 270°
2026-05-08 10:32 -5.96075 106.83635 8103 ft 263 kts 270°
2026-05-08 10:32 -5.96070 106.81802 7975 ft 262 kts 270°
2026-05-08 10:32 -5.96070 106.79996 7857 ft 262 kts 267°
2026-05-08 10:32 -5.96347 106.78177 7729 ft 261 kts 253°
2026-05-08 10:33 -5.96964 106.76466 7612 ft 260 kts 248°
2026-05-08 10:33 -5.97664 106.74776 7499 ft 259 kts 246°
2026-05-08 10:33 -5.98359 106.73116 7381 ft 259 kts 247°
2026-05-08 10:33 -5.99055 106.71439 7262 ft 259 kts 247°
2026-05-08 10:34 -5.99741 106.69769 7142 ft 260 kts 247°
2026-05-08 10:34 -6.00430 106.68077 7018 ft 259 kts 248°
2026-05-08 10:34 -6.01110 106.66401 6890 ft 259 kts 248°
2026-05-08 10:34 -6.01783 106.64741 6757 ft 258 kts 248°
2026-05-08 10:35 -6.02459 106.63071 6595 ft 258 kts 248°
2026-05-08 10:35 -6.03136 106.61396 6424 ft 257 kts 248°
2026-05-08 10:35 -6.03816 106.59715 6174 ft 258 kts 248°
2026-05-08 10:35 -6.04497 106.58033 5888 ft 261 kts 248°
2026-05-08 10:36 -6.05184 106.56335 5600 ft 263 kts 248°
2026-05-08 10:36 -6.05871 106.54635 5308 ft 266 kts 248°
2026-05-08 10:36 -6.06567 106.52911 4972 ft 265 kts 248°
2026-05-08 10:36 -6.07256 106.51202 4698 ft 264 kts 248°
2026-05-08 10:37 -6.07957 106.49467 4376 ft 268 kts 248°
2026-05-08 10:37 -6.08660 106.47724 4048 ft 272 kts 248°
2026-05-08 10:37 -6.09373 106.45955 3717 ft 275 kts 248°
2026-05-08 10:37 -6.10084 106.44196 3350 ft 269 kts 248°
2026-05-08 10:38 -6.10863 106.42512 2998 ft 262 kts 232°
2026-05-08 10:38 -6.12270 106.41448 2688 ft 251 kts 193°
2026-05-08 10:38 -6.13936 106.41476 2518 ft 232 kts 156°
2026-05-08 10:38 -6.15368 106.42120 2358 ft 219 kts 154°
2026-05-08 10:39 -6.16760 106.42687 2153 ft 210 kts 155°
2026-05-08 10:39 -6.17868 106.43521 1994 ft 195 kts 112°
2026-05-08 10:39 -6.18062 106.44847 2032 ft 192 kts 81°
2026-05-08 10:39 -6.17858 106.46137 2051 ft 180 kts 81°
2026-05-08 10:40 -6.17748 106.47360 2020 ft 174 kts 82°
2026-05-08 10:40 -6.17553 106.48566 2013 ft 174 kts 75°
2026-05-08 10:40 -6.17223 106.49726 2010 ft 173 kts 70°
2026-05-08 10:40 -6.16815 106.50874 2005 ft 172 kts 68°
2026-05-08 10:41 -6.16382 106.51988 2005 ft 171 kts 67°
2026-05-08 10:41 -6.15936 106.53104 2006 ft 171 kts 67°
2026-05-08 10:41 -6.15492 106.54210 2006 ft 172 kts 67°
2026-05-08 10:41 -6.15047 106.55320 1912 ft 167 kts 67°
2026-05-08 10:42 -6.14620 106.56391 1679 ft 162 kts 67°
2026-05-08 10:42 -6.14205 106.57435 1471 ft 155 kts 66°
2026-05-08 10:42 -6.13816 106.58410 1284 ft 149 kts 66°
2026-05-08 10:42 -6.13425 106.59388 1102 ft 149 kts 66°
2026-05-08 10:43 -6.13039 106.60355 901 ft 149 kts 66°
2026-05-08 10:43 -6.12652 106.61326 712 ft 148 kts 66°
2026-05-08 10:43 -6.12267 106.62291 518 ft 148 kts 66°
2026-05-08 10:43 -6.11885 106.63250 327 ft 147 kts 66°
2026-05-08 10:44 -6.11490 106.64204 128 ft 146 kts 65°
2026-05-08 10:44 -6.11117 106.65075 55 ft 107 kts 69°
2026-05-08 10:44 -6.10955 106.65489 55 ft 20 kts 72°
2026-05-08 10:44 -6.10903 106.65626 55 ft 30 kts 68°
2026-05-08 10:45 -6.10800 106.65878 55 ft 27 kts 70°
2026-05-08 10:45 -6.10745 106.66030 55 ft 22 kts 69°
2026-05-08 10:45 -6.10689 106.66180 55 ft 22 kts 69°
2026-05-08 10:45 -6.10642 106.66323 55 ft 21 kts 75°